TimeCDT,TemperatureF,Dew PointF,Humidity,Sea Level PressureIn,VisibilityMPH,Wind Direction,Wind SpeedMPH,Gust SpeedMPH,PrecipitationIn,Events,Conditions,WindDirDegrees,DateUTC
12:15 AM,35.6,26.6,70,29.95,10.0,WNW,11.5,21.9,N/A,,Overcast,290,2012-10-10 05:15:00
12:55 AM,33.8,26.6,75,29.95,10.0,WNW,11.5,-,N/A,,Scattered Clouds,290,2012-10-10 05:55:00
1:15 AM,33.8,26.6,75,29.95,10.0,WNW,10.4,-,N/A,,Scattered Clouds,290,2012-10-10 06:15:00
1:35 AM,33.8,26.6,75,29.96,10.0,WNW,10.4,-,N/A,,Scattered Clouds,290,2012-10-10 06:35:00
1:55 AM,32.0,26.6,80,29.96,10.0,WNW,10.4,-,N/A,,Clear,290,2012-10-10 06:55:00
2:15 AM,32.0,26.6,80,29.97,10.0,WNW,10.4,-,N/A,,Clear,290,2012-10-10 07:15:00
2:35 AM,32.0,26.6,80,29.97,10.0,WNW,8.1,-,N/A,,Clear,290,2012-10-10 07:35:00
2:55 AM,32.0,26.6,80,29.97,10.0,WNW,9.2,-,N/A,,Clear,290,2012-10-10 07:55:00
3:15 AM,32.0,26.6,80,29.97,10.0,West,8.1,-,N/A,,Clear,280,2012-10-10 08:15:00
3:35 AM,30.2,26.6,86,29.98,10.0,West,4.6,-,N/A,,Clear,260,2012-10-10 08:35:00
3:55 AM,28.4,26.6,93,29.98,10.0,West,6.9,-,N/A,,Clear,280,2012-10-10 08:55:00
4:15 AM,28.4,26.6,93,29.99,10.0,West,6.9,-,N/A,,Clear,280,2012-10-10 09:15:00
4:35 AM,30.2,26.6,86,29.99,10.0,West,6.9,-,N/A,,Scattered Clouds,270,2012-10-10 09:35:00
4:55 AM,30.2,26.6,86,29.99,10.0,West,6.9,-,N/A,,Overcast,270,2012-10-10 09:55:00
5:15 AM,30.2,26.6,86,30.00,10.0,West,6.9,-,N/A,,Overcast,270,2012-10-10 10:15:00
5:35 AM,30.2,26.6,86,30.01,10.0,West,5.8,-,N/A,,Overcast,270,2012-10-10 10:35:00
5:55 AM,30.2,26.6,86,30.01,10.0,West,5.8,-,N/A,,Mostly Cloudy,270,2012-10-10 10:55:00
6:15 AM,28.4,26.6,93,30.02,10.0,West,5.8,-,N/A,,Scattered Clouds,280,2012-10-10 11:15:00
6:35 AM,26.6,26.6,100,30.02,10.0,West,5.8,-,N/A,,Clear,270,2012-10-10 11:35:00
6:55 AM,26.6,26.6,100,30.03,10.0,West,4.6,-,N/A,,Clear,260,2012-10-10 11:55:00
7:15 AM,26.6,26.6,100,30.03,10.0,West,4.6,-,N/A,,Clear,260,2012-10-10 12:15:00
7:35 AM,26.6,26.6,100,30.03,10.0,West,4.6,-,N/A,,Clear,270,2012-10-10 12:35:00
7:55 AM,28.4,28.4,100,30.04,10.0,West,8.1,-,N/A,,Clear,260,2012-10-10 12:55:00
8:15 AM,30.2,28.4,93,30.05,10.0,West,6.9,-,N/A,,Clear,270,2012-10-10 13:15:00
8:35 AM,32.0,28.4,87,30.05,10.0,West,8.1,-,N/A,,Clear,270,2012-10-10 13:35:00
8:55 AM,32.0,28.4,87,30.05,10.0,West,9.2,-,N/A,,Clear,280,2012-10-10 13:55:00
9:15 AM,33.8,28.4,81,30.06,10.0,West,10.4,-,N/A,,Clear,280,2012-10-10 14:15:00
9:35 AM,35.6,30.2,81,30.06,10.0,WNW,8.1,-,N/A,,Clear,290,2012-10-10 14:35:00
9:55 AM,37.4,30.2,75,30.06,10.0,West,9.2,-,N/A,,Clear,260,2012-10-10 14:55:00
10:15 AM,39.2,28.4,65,30.06,10.0,West,10.4,-,N/A,,Clear,280,2012-10-10 15:15:00
10:35 AM,41.0,28.4,61,30.07,10.0,West,12.7,-,N/A,,Clear,280,2012-10-10 15:35:00
10:55 AM,41.0,28.4,61,30.07,10.0,WNW,9.2,-,N/A,,Clear,290,2012-10-10 15:55:00
11:15 AM,42.8,26.6,53,30.07,10.0,NW,9.2,-,N/A,,Clear,310,2012-10-10 16:15:00
11:55 AM,44.6,24.8,46,30.07,10.0,WNW,12.7,-,N/A,,Mostly Cloudy,300,2012-10-10 16:55:00
12:15 PM,44.6,21.2,39,30.07,10.0,West,13.8,27.6,N/A,,Scattered Clouds,280,2012-10-10 17:15:00
12:35 PM,44.6,21.2,39,30.07,10.0,WNW,19.6,25.3,N/A,,Scattered Clouds,300,2012-10-10 17:35:00
12:55 PM,44.6,21.2,39,30.07,10.0,West,12.7,23.0,N/A,,Scattered Clouds,270,2012-10-10 17:55:00
1:15 PM,44.6,23.0,43,30.06,10.0,West,15.0,19.6,N/A,,Scattered Clouds,270,2012-10-10 18:15:00
1:35 PM,44.6,23.0,43,30.06,10.0,West,6.9,17.3,N/A,,Mostly Cloudy,260,2012-10-10 18:35:00
1:55 PM,46.4,23.0,40,30.05,10.0,West,9.2,23.0,N/A,,Scattered Clouds,280,2012-10-10 18:55:00
2:15 PM,46.4,23.0,40,30.04,10.0,WNW,11.5,-,N/A,,Mostly Cloudy,290,2012-10-10 19:15:00
2:35 PM,46.4,23.0,40,30.04,10.0,West,11.5,-,N/A,,Overcast,260,2012-10-10 19:35:00
2:55 PM,46.4,23.0,40,30.04,10.0,West,12.7,17.3,N/A,,Overcast,270,2012-10-10 19:55:00
3:15 PM,50.0,23.0,35,30.03,10.0,WSW,13.8,17.3,N/A,,Mostly Cloudy,240,2012-10-10 20:15:00
3:35 PM,46.4,23.0,40,30.03,10.0,WSW,12.7,21.9,N/A,,Overcast,250,2012-10-10 20:35:00
3:55 PM,50.0,23.0,35,30.02,10.0,WSW,13.8,-,N/A,,Scattered Clouds,240,2012-10-10 20:55:00
4:15 PM,46.4,21.2,37,30.01,10.0,West,15.0,18.4,N/A,,Scattered Clouds,260,2012-10-10 21:15:00
4:35 PM,46.4,23.0,40,30.01,10.0,WSW,9.2,-,N/A,,Mostly Cloudy,240,2012-10-10 21:35:00
4:55 PM,48.2,23.0,37,30.00,10.0,West,12.7,-,N/A,,Mostly Cloudy,280,2012-10-10 21:55:00
5:15 PM,46.4,23.0,40,30.01,10.0,West,11.5,16.1,N/A,,Mostly Cloudy,260,2012-10-10 22:15:00
5:35 PM,48.2,23.0,37,30.00,10.0,WSW,13.8,19.6,N/A,,Overcast,240,2012-10-10 22:35:00
5:55 PM,46.4,23.0,40,29.99,10.0,WSW,11.5,18.4,N/A,,Overcast,240,2012-10-10 22:55:00
6:15 PM,46.4,24.8,43,29.99,10.0,SW,6.9,-,N/A,,Overcast,230,2012-10-10 23:15:00
6:35 PM,46.4,23.0,40,29.99,10.0,WSW,5.8,-,N/A,,Overcast,240,2012-10-10 23:35:00
6:55 PM,44.6,26.6,49,29.99,10.0,SSW,3.5,-,N/A,,Overcast,210,2012-10-10 23:55:00
7:15 PM,44.6,26.6,49,29.99,10.0,Calm,Calm,-,N/A,,Overcast,0,2012-10-11 00:15:00
7:35 PM,44.6,26.6,49,29.98,10.0,SE,3.5,-,N/A,,Overcast,140,2012-10-11 00:35:00
7:55 PM,44.6,26.6,49,29.98,10.0,SE,3.5,-,N/A,,Overcast,140,2012-10-11 00:55:00
8:15 PM,44.6,26.6,49,29.97,10.0,SSE,3.5,-,N/A,,Overcast,150,2012-10-11 01:15:00
8:35 PM,44.6,26.6,49,29.97,10.0,SE,4.6,-,N/A,,Overcast,140,2012-10-11 01:35:00
8:55 PM,42.8,26.6,53,29.97,10.0,SE,4.6,-,N/A,,Overcast,130,2012-10-11 01:55:00
9:15 PM,42.8,26.6,53,29.95,10.0,SE,5.8,-,N/A,,Mostly Cloudy,130,2012-10-11 02:15:00
9:35 PM,42.8,26.6,53,29.95,10.0,SE,5.8,-,N/A,,Scattered Clouds,140,2012-10-11 02:35:00
9:55 PM,44.6,26.6,49,29.94,10.0,SSE,6.9,-,N/A,,Mostly Cloudy,150,2012-10-11 02:55:00
10:15 PM,44.6,26.6,49,29.93,10.0,SSE,8.1,-,N/A,,Overcast,150,2012-10-11 03:15:00
10:35 PM,44.6,26.6,49,29.91,10.0,SSE,6.9,-,N/A,,Overcast,150,2012-10-11 03:35:00
10:55 PM,44.6,26.6,49,29.89,10.0,SSE,8.1,-,N/A,,Overcast,150,2012-10-11 03:55:00
11:15 PM,44.6,26.6,49,29.88,10.0,SSE,10.4,-,N/A,,Overcast,160,2012-10-11 04:15:00
11:35 PM,44.6,26.6,49,29.87,10.0,SSE,10.4,-,N/A,,Overcast,160,2012-10-11 04:35:00
11:55 PM,44.6,26.6,49,29.86,10.0,South,11.5,-,N/A,,Overcast,180,2012-10-11 04:55:00